Hourly Data Report for September 11, 2017

All times are specified in Local Standard Time (LST). Add 1 hour to adjust for Daylight Saving Time where and when it is observed.

GRAND MANAN SAR CS
NEW BRUNSWICK

44°42'43.400" N
66°48'06.900" W
78.20 m
8101925
71030
XGM

Download Data

Hourly Data (September 2017)
Hourly Data Report for September 11, 2017
Temp Definition
°C
Dew Point Temp Definition
°C
Rel Hum Definition
%
Wind Dir Definition
10's deg

Wind Spd Definition
km/h
Visibility Definition
km
Stn Press Definition
kPa
Hmdx Definition


Wind Chill Definition


Weather Definition


TIME
00:00 12.5 8.4 76 33 7   101.28     LegendNANA
01:00 12.2 8.2 76 31 8   101.24     LegendNANA
02:00 12.0 8.0 77 31 7   101.16     LegendNANA
03:00 11.1 8.0 82 28 4   101.09     LegendNANA
04:00 11.9 8.9 82 30 6   101.04     LegendNANA
05:00 13.1 9.1 77 32 13   101.00     LegendNANA
06:00 13.2 9.0 75 33 12   101.02     LegendNANA
07:00 12.9 9.0 78 33 16   101.02     LegendNANA
08:00 13.1 9.4 79 33 16   101.04     LegendNANA
09:00 15.0 9.9 71 33 17   101.02     LegendNANA
10:00 16.8 10.6 67 35 19   101.00     LegendNANA
11:00 17.9 10.7 63 34 20   100.99     LegendNANA
12:00 18.9 10.5 58 34 17   100.97     LegendNANA
13:00 20.3 11.6 57 36 17   100.88     LegendNANA
14:00 21.0 11.6 55 36 18   100.80     LegendNANA
15:00 21.7 11.1 51 36 12   100.73     LegendNANA
16:00 21.9 11.3 51 34 15   100.66     LegendNANA
17:00 20.7 11.4 55 33 8   100.65     LegendNANA
18:00 19.1 12.3 65 25 2   100.62     LegendNANA
19:00 15.7 11.2 75 27 2   100.61     LegendNANA
20:00 16.5 12.5 78 35 8   100.58     LegendNANA
21:00 16.0 11.9 77 35 5   100.59     LegendNANA
22:00 14.7 11.8 83 33 8   100.61     LegendNANA
23:00 14.8 12.5 87 34 11   100.60     LegendNANA

Notes on Data Quality.

Legend

  • E = Estimated
  • M = Missing
  • NA = Not Available
  • ‡ = Partner data that is not subject to review by the National Climate Archives
Date modified: